Time,TemperatureF,DewpointF,PressureIn,WindDirection,WindDirectionDegrees,WindSpeedMPH,WindSpeedGustMPH,Humidity,HourlyPrecipIn,Conditions,Clouds,dailyrainin,SoftwareType,DateUTC
2013-04-21 00:01:00,31.0,16.0,30.14,NNW,346,5.0,6.0,54,0.00,,,0.00,,2013-04-21 06:01:00,
2013-04-21 00:11:00,31.0,16.0,30.15,North,352,2.0,3.0,53,0.00,,,0.00,,2013-04-21 06:11:00,
2013-04-21 00:21:00,31.0,16.0,30.15,North,352,2.0,3.0,53,0.00,,,0.00,,2013-04-21 06:21:00,
2013-04-21 00:32:00,31.0,15.0,30.14,NNW,328,3.0,5.0,52,0.00,,,0.00,,2013-04-21 06:32:00,
2013-04-21 00:42:00,31.0,15.0,30.14,NNW,328,3.0,5.0,52,0.00,,,0.00,,2013-04-21 06:42:00,
2013-04-21 00:51:00,31.0,16.0,30.15,NW,323,5.0,5.0,53,0.00,,,0.00,,2013-04-21 06:51:00,
2013-04-21 01:01:00,30.0,16.0,30.15,North,4,3.0,5.0,55,0.00,,,0.00,,2013-04-21 07:01:00,
2013-04-21 01:11:00,30.0,16.0,30.15,NNW,346,3.0,3.0,56,0.00,,,0.00,,2013-04-21 07:11:00,
2013-04-21 01:21:00,30.0,16.0,30.15,NNW,346,3.0,3.0,56,0.00,,,0.00,,2013-04-21 07:21:00,
2013-04-21 01:31:00,30.0,15.0,30.15,North,0,3.0,3.0,54,0.00,,,0.00,,2013-04-21 07:31:00,
2013-04-21 01:41:00,30.0,15.0,30.15,North,0,3.0,3.0,54,0.00,,,0.00,,2013-04-21 07:41:00,
2013-04-21 01:51:00,30.0,16.0,30.15,North,352,3.0,3.0,55,0.00,,,0.00,,2013-04-21 07:51:00,
2013-04-21 02:01:00,29.0,15.0,30.15,North,0,5.0,6.0,55,0.00,,,0.00,,2013-04-21 08:01:00,
2013-04-21 02:11:00,29.0,15.0,30.15,NNE,14,2.0,3.0,55,0.00,,,0.00,,2013-04-21 08:11:00,
2013-04-21 02:21:00,29.0,15.0,30.15,NNE,14,2.0,3.0,55,0.00,,,0.00,,2013-04-21 08:21:00,
2013-04-21 02:32:00,29.0,15.0,30.15,NNE,14,2.0,3.0,55,0.00,,,0.00,,2013-04-21 08:32:00,
2013-04-21 02:41:00,29.0,15.0,30.15,NNE,14,2.0,3.0,55,0.00,,,0.00,,2013-04-21 08:41:00,
2013-04-21 02:52:00,29.0,15.0,30.15,NNE,13,3.0,3.0,56,0.00,,,0.00,,2013-04-21 08:52:00,
2013-04-21 03:01:00,28.0,16.0,30.15,North,351,3.0,5.0,59,0.00,,,0.00,,2013-04-21 09:01:00,
2013-04-21 03:11:00,28.0,16.0,30.15,North,359,3.0,3.0,60,0.00,,,0.00,,2013-04-21 09:11:00,
2013-04-21 03:21:00,28.0,16.0,30.15,North,359,3.0,3.0,60,0.00,,,0.00,,2013-04-21 09:21:00,
2013-04-21 03:32:00,28.0,15.0,30.15,North,6,3.0,3.0,58,0.00,,,0.00,,2013-04-21 09:32:00,
2013-04-21 03:42:00,28.0,15.0,30.15,North,6,3.0,3.0,58,0.00,,,0.00,,2013-04-21 09:42:00,
2013-04-21 03:52:00,28.0,16.0,30.15,North,357,5.0,6.0,59,0.00,,,0.00,,2013-04-21 09:52:00,
2013-04-21 04:02:00,27.0,15.0,30.15,North,0,3.0,5.0,59,0.00,,,0.00,,2013-04-21 10:02:00,
2013-04-21 04:12:00,27.0,14.0,30.15,North,0,3.0,3.0,58,0.00,,,0.00,,2013-04-21 10:12:00,
2013-04-21 04:22:00,27.0,14.0,30.15,North,0,3.0,3.0,58,0.00,,,0.00,,2013-04-21 10:22:00,
2013-04-21 04:32:00,26.0,14.0,30.15,North,0,1.0,2.0,61,0.00,,,0.00,,2013-04-21 10:32:00,
2013-04-21 04:42:00,26.0,14.0,30.15,North,0,1.0,2.0,61,0.00,,,0.00,,2013-04-21 10:42:00,
2013-04-21 04:52:00,26.0,15.0,30.15,North,0,2.0,3.0,63,0.00,,,0.00,,2013-04-21 10:52:00,
2013-04-21 05:02:00,26.0,14.0,30.15,NNW,338,5.0,7.0,60,0.00,,,0.00,,2013-04-21 11:02:00,
2013-04-21 05:11:00,26.0,14.0,30.15,NNW,338,5.0,7.0,60,0.00,,,0.00,,2013-04-21 11:11:00,
2013-04-21 05:22:00,26.0,14.0,30.15,North,353,5.0,7.0,60,0.00,,,0.00,,2013-04-21 11:22:00,
2013-04-21 05:33:00,26.0,13.0,30.15,North,359,3.0,5.0,58,0.00,,,0.00,,2013-04-21 11:33:00,
2013-04-21 05:42:00,26.0,13.0,30.15,North,359,3.0,5.0,58,0.00,,,0.00,,2013-04-21 11:42:00,
2013-04-21 05:51:00,26.0,13.0,30.16,NNW,340,5.0,6.0,57,0.00,,,0.00,,2013-04-21 11:51:00,
2013-04-21 06:02:00,26.0,14.0,30.15,North,0,3.0,5.0,59,0.00,,,0.00,,2013-04-21 12:02:00,
2013-04-21 06:12:00,26.0,14.0,30.16,North,358,3.0,6.0,59,0.00,,,0.00,,2013-04-21 12:12:00,
2013-04-21 06:22:00,26.0,14.0,30.16,North,358,3.0,6.0,59,0.00,,,0.00,,2013-04-21 12:22:00,
2013-04-21 06:31:00,26.0,13.0,30.16,North,351,5.0,6.0,57,0.00,,,0.00,,2013-04-21 12:31:00,
2013-04-21 06:42:00,26.0,13.0,30.16,North,351,5.0,6.0,57,0.00,,,0.00,,2013-04-21 12:42:00,
2013-04-21 06:51:00,25.0,12.0,30.16,North,350,5.0,7.0,57,0.00,,,0.00,,2013-04-21 12:51:00,
2013-04-21 07:01:00,26.0,12.0,30.17,North,357,5.0,5.0,56,0.00,,,0.00,,2013-04-21 13:01:00,
2013-04-21 07:11:00,26.0,12.0,30.17,North,358,3.0,5.0,56,0.00,,,0.00,,2013-04-21 13:11:00,
2013-04-21 07:21:00,26.0,12.0,30.17,North,358,3.0,5.0,56,0.00,,,0.00,,2013-04-21 13:21:00,
2013-04-21 07:32:00,29.0,13.0,30.18,North,4,3.0,5.0,51,0.00,,,0.00,,2013-04-21 13:32:00,
2013-04-21 07:42:00,29.0,13.0,30.18,North,4,3.0,5.0,51,0.00,,,0.00,,2013-04-21 13:42:00,
2013-04-21 07:52:00,30.0,13.0,30.18,North,7,5.0,8.0,49,0.00,,,0.00,,2013-04-21 13:52:00,
2013-04-21 08:01:00,32.0,14.0,30.18,North,351,2.0,3.0,47,0.00,,,0.00,,2013-04-21 14:01:00,
2013-04-21 08:11:00,32.0,14.0,30.18,North,351,2.0,3.0,47,0.00,,,0.00,,2013-04-21 14:11:00,
2013-04-21 08:31:00,36.0,15.0,30.18,NNE,24,2.0,5.0,42,0.00,,,0.00,,2013-04-21 14:31:00,
2013-04-21 08:42:00,36.0,15.0,30.18,NNE,24,2.0,5.0,42,0.00,,,0.00,,2013-04-21 14:42:00,
2013-04-21 08:52:00,37.0,15.0,30.18,NNE,24,0.0,3.0,40,0.00,,,0.00,,2013-04-21 14:52:00,
2013-04-21 09:01:00,40.0,15.0,30.18,ENE,67,2.0,3.0,36,0.00,,,0.00,,2013-04-21 15:01:00,
2013-04-21 09:33:00,42.0,16.0,30.18,ESE,115,5.0,5.0,35,0.00,,,0.00,,2013-04-21 15:33:00,
2013-04-21 09:42:00,42.0,16.0,30.18,ESE,115,5.0,5.0,35,0.00,,,0.00,,2013-04-21 15:42:00,
2013-04-21 09:53:00,46.0,18.0,30.18,ESE,114,1.0,6.0,32,0.00,,,0.00,,2013-04-21 15:53:00,
2013-04-21 10:03:00,48.0,16.0,30.18,SE,133,5.0,9.0,28,0.00,,,0.00,,2013-04-21 16:03:00,
2013-04-21 10:12:00,49.0,16.0,30.19,SE,126,6.0,6.0,27,0.00,,,0.00,,2013-04-21 16:12:00,
2013-04-21 10:22:00,49.0,16.0,30.19,SE,126,6.0,6.0,27,0.00,,,0.00,,2013-04-21 16:22:00,
2013-04-21 10:32:00,51.0,17.0,30.19,ESE,112,6.0,9.0,26,0.00,,,0.00,,2013-04-21 16:32:00,
2013-04-21 10:52:00,52.0,17.0,30.19,ESE,120,5.0,8.0,25,0.00,,,0.00,,2013-04-21 16:52:00,
2013-04-21 11:01:00,54.0,17.0,30.18,SE,124,5.0,9.0,23,0.00,,,0.00,,2013-04-21 17:01:00,
2013-04-21 11:11:00,55.0,17.0,30.18,ESE,117,6.0,12.0,22,0.00,,,0.00,,2013-04-21 17:11:00,
2013-04-21 11:32:00,56.0,17.0,30.18,SE,146,7.0,12.0,21,0.00,,,0.00,,2013-04-21 17:32:00,
2013-04-21 11:52:00,57.0,17.0,30.18,South,169,9.0,17.0,21,0.00,,,0.00,,2013-04-21 17:52:00,
2013-04-21 12:02:00,57.0,17.0,30.18,SSE,158,9.0,14.0,21,0.00,,,0.00,,2013-04-21 18:02:00,
2013-04-21 12:21:00,58.0,16.0,30.18,South,178,8.0,10.0,19,0.00,,,0.00,,2013-04-21 18:21:00,
2013-04-21 12:32:00,59.0,17.0,30.17,SE,129,6.0,10.0,19,0.00,,,0.00,,2013-04-21 18:32:00,
2013-04-21 12:52:00,60.0,18.0,30.17,ESE,121,10.0,20.0,19,0.00,,,0.00,,2013-04-21 18:52:00,
2013-04-21 13:02:00,60.0,19.0,30.16,SE,143,15.0,20.0,20,0.00,,,0.00,,2013-04-21 19:02:00,
2013-04-21 13:21:00,60.0,20.0,30.16,WSW,252,5.0,12.0,21,0.00,,,0.00,,2013-04-21 19:21:00,
2013-04-21 13:31:00,62.0,19.0,30.16,SW,231,6.0,8.0,19,0.00,,,0.00,,2013-04-21 19:31:00,
2013-04-21 14:01:00,65.0,19.0,30.15,SE,146,7.0,10.0,17,0.00,,,0.00,,2013-04-21 20:01:00,
2013-04-21 14:21:00,64.0,10.0,30.15,WSW,249,7.0,13.0,12,0.00,,,0.00,,2013-04-21 20:21:00,
2013-04-21 14:31:00,61.0,6.0,30.15,NW,320,6.0,8.0,11,0.00,,,0.00,,2013-04-21 20:31:00,
2013-04-21 14:51:00,60.0,9.0,30.15,West,264,5.0,7.0,13,0.00,,,0.00,,2013-04-21 20:51:00,
2013-04-21 15:02:00,59.0,8.0,30.14,WNW,286,9.0,22.0,13,0.00,,,0.00,,2013-04-21 21:02:00,
2013-04-21 15:12:00,60.0,12.0,30.15,NE,43,2.0,3.0,15,0.00,,,0.00,,2013-04-21 21:12:00,
2013-04-21 15:32:00,58.0,11.0,30.15,West,262,7.0,15.0,15,0.00,,,0.00,,2013-04-21 21:32:00,
2013-04-21 15:53:00,61.0,10.0,30.14,NW,320,3.0,8.0,13,0.00,,,0.00,,2013-04-21 21:53:00,
2013-04-21 16:02:00,59.0,5.0,30.14,NNW,348,6.0,20.0,11,0.00,,,0.00,,2013-04-21 22:02:00,
2013-04-21 16:12:00,56.0,7.0,30.14,WSW,246,6.0,6.0,14,0.00,,,0.00,,2013-04-21 22:12:00,
2013-04-21 16:22:00,56.0,7.0,30.14,WSW,246,6.0,6.0,14,0.00,,,0.00,,2013-04-21 22:22:00,
2013-04-21 16:32:00,57.0,10.0,30.13,ESE,115,2.0,6.0,15,0.00,,,0.00,,2013-04-21 22:32:00,
2013-04-21 16:42:00,57.0,10.0,30.13,ESE,115,2.0,6.0,15,0.00,,,0.00,,2013-04-21 22:42:00,
2013-04-21 16:52:00,64.0,14.0,30.13,West,273,7.0,13.0,14,0.00,,,0.00,,2013-04-21 22:52:00,
2013-04-21 17:02:00,62.0,15.0,30.12,SSW,209,5.0,10.0,16,0.00,,,0.00,,2013-04-21 23:02:00,
2013-04-21 17:22:00,66.0,15.0,30.12,WNW,291,6.0,9.0,14,0.00,,,0.00,,2013-04-21 23:22:00,
2013-04-21 17:32:00,66.0,14.0,30.12,West,271,3.0,10.0,13,0.00,,,0.00,,2013-04-21 23:32:00,
2013-04-21 17:52:00,63.0,13.0,30.12,WNW,287,5.0,5.0,14,0.00,,,0.00,,2013-04-21 23:52:00,
2013-04-21 18:01:00,61.0,13.0,30.13,WNW,287,12.0,20.0,15,0.00,,,0.00,,2013-04-22 00:01:00,
2013-04-21 18:21:00,61.0,13.0,30.13,WNW,295,3.0,5.0,15,0.00,,,0.00,,2013-04-22 00:21:00,
2013-04-21 18:31:00,59.0,14.0,30.14,WSW,252,7.0,12.0,17,0.00,,,0.00,,2013-04-22 00:31:00,
2013-04-21 19:01:00,51.0,16.0,30.14,West,263,5.0,8.0,24,0.00,,,0.00,,2013-04-22 01:01:00,
2013-04-21 19:11:00,51.0,16.0,30.14,West,263,5.0,8.0,24,0.00,,,0.00,,2013-04-22 01:11:00,
2013-04-21 19:21:00,49.0,15.0,30.14,West,274,6.0,8.0,25,0.00,,,0.00,,2013-04-22 01:21:00,
2013-04-21 19:32:00,48.0,15.0,30.14,East,81,2.0,5.0,26,0.00,,,0.00,,2013-04-22 01:32:00,
2013-04-21 19:41:00,48.0,15.0,30.14,East,81,2.0,5.0,26,0.00,,,0.00,,2013-04-22 01:41:00,
2013-04-21 19:51:00,47.0,15.0,30.14,East,83,0.0,0.0,27,0.00,,,0.00,,2013-04-22 01:51:00,
2013-04-21 20:01:00,45.0,15.0,30.14,East,85,0.0,0.0,30,0.00,,,0.00,,2013-04-22 02:01:00,
2013-04-21 20:11:00,44.0,16.0,30.15,WSW,238,0.0,0.0,32,0.00,,,0.00,,2013-04-22 02:11:00,
2013-04-21 20:21:00,44.0,16.0,30.15,WSW,238,0.0,0.0,32,0.00,,,0.00,,2013-04-22 02:21:00,
2013-04-21 20:31:00,43.0,15.0,30.15,West,268,7.0,10.0,32,0.00,,,0.00,,2013-04-22 02:31:00,
2013-04-21 20:41:00,43.0,15.0,30.15,West,268,7.0,10.0,32,0.00,,,0.00,,2013-04-22 02:41:00,
2013-04-21 20:51:00,42.0,14.0,30.16,NNW,337,0.0,1.0,32,0.00,,,0.00,,2013-04-22 02:51:00,
2013-04-21 21:02:00,41.0,14.0,30.16,ENE,76,1.0,3.0,33,0.00,,,0.00,,2013-04-22 03:02:00,
2013-04-21 21:11:00,41.0,14.0,30.16,ENE,76,1.0,3.0,33,0.00,,,0.00,,2013-04-22 03:11:00,
2013-04-21 21:22:00,41.0,14.0,30.17,NNE,16,1.0,0.0,33,0.00,,,0.00,,2013-04-22 03:22:00,
2013-04-21 21:33:00,39.0,14.0,30.16,NNE,16,1.0,3.0,35,0.00,,,0.00,,2013-04-22 03:33:00,
2013-04-21 21:42:00,39.0,14.0,30.16,NNE,16,1.0,3.0,35,0.00,,,0.00,,2013-04-22 03:42:00,
2013-04-21 21:52:00,39.0,16.0,30.17,NNE,16,0.0,0.0,38,0.00,,,0.00,,2013-04-22 03:52:00,
2013-04-21 22:02:00,38.0,15.0,30.17,NNE,16,3.0,5.0,39,0.00,,,0.00,,2013-04-22 04:02:00,
2013-04-21 22:12:00,38.0,15.0,30.17,NNE,16,3.0,5.0,39,0.00,,,0.00,,2013-04-22 04:12:00,
2013-04-21 22:23:00,38.0,14.0,30.17,NNE,15,3.0,3.0,37,0.00,,,0.00,,2013-04-22 04:23:00,
2013-04-21 22:32:00,38.0,15.0,30.16,North,6,5.0,7.0,39,0.00,,,0.00,,2013-04-22 04:32:00,
2013-04-21 22:43:00,38.0,15.0,30.16,North,6,5.0,7.0,39,0.00,,,0.00,,2013-04-22 04:43:00,
2013-04-21 22:52:00,38.0,16.0,30.16,NNW,340,5.0,7.0,40,0.00,,,0.00,,2013-04-22 04:52:00,
2013-04-21 23:02:00,38.0,15.0,30.16,North,352,3.0,5.0,39,0.00,,,0.00,,2013-04-22 05:02:00,
2013-04-21 23:11:00,38.0,16.0,30.16,North,0,3.0,5.0,40,0.00,,,0.00,,2013-04-22 05:11:00,
2013-04-21 23:22:00,38.0,16.0,30.16,North,0,3.0,5.0,40,0.00,,,0.00,,2013-04-22 05:22:00,
2013-04-21 23:32:00,38.0,15.0,30.15,North,0,0.0,0.0,39,0.00,,,0.00,,2013-04-22 05:32:00,
2013-04-21 23:42:00,38.0,15.0,30.15,North,0,0.0,0.0,39,0.00,,,0.00,,2013-04-22 05:42:00,
2013-04-21 23:52:00,38.0,15.0,30.15,NNE,30,3.0,3.0,39,0.00,,,0.00,,2013-04-22 05:52:00,